[[{"header":{"parameterUnit":"m.s-1","parameterCategory":1,"la1":30.2991,"la2":30.254,"lo1":-89.0895,"lo2":-89.0444,"dy":0.0017,"dx":0.0017,"nx":28,"ny":28,"refTime":"2024-06-04T21:00:00:Z","depth":0,"parameterNumber":2,"parameterNumberName":"U-component_of_WINDS"},"data":[0,0,0,0,0,0,0,0,0,0,0,0,0,0,0,0,0,0,0,0,0,0,0,0,0,0,0,0,0,0,0,0,0,0,0,0,0,0,0,0,0,0,0,0,0,0,0,0,0,0,0,0,0,0,0,0,0,0,2.8959,2.8958,0,2.8904,2.8903,2.8902,2.8792,2.879,2.8788,2.8785,2.873,2.8731,2.8731,0,0,0,0,0,0,0,0,0,0,0,0,0,2.8969,2.897,2.8959,2.8958,2.8958,2.8904,2.8903,2.8902,2.8792,2.879,2.8787,2.8784,2.873,2.8731,2.8731,0,0,0,0,0,0,0,0,0,0,0,0,0,2.8945,2.897,2.8959,2.8896,2.889,2.8904,2.8903,2.8902,2.8793,2.879,2.8786,2.8783,2.873,2.8731,2.8731,2.8802,0,0,2.8734,2.8734,0,0,0,0,0,0,0,0,2.8946,2.8944,2.8906,2.8901,2.8894,2.8851,2.8886,2.8869,2.8794,2.883,2.8785,2.8782,2.8773,2.877,2.8767,2.88,2.8797,2.8734,2.8735,2.8735,2.8735,0,0,0,0,0,0,0,2.8948,2.8946,2.8937,2.8906,2.8898,2.8871,2.8864,2.8882,2.8821,2.8826,2.8818,2.8813,2.8769,2.8767,2.8765,2.8797,2.8734,2.8735,2.8735,2.8736,2.8881,2.8885,0,0,0,0,0,0,2.8959,2.8948,2.8939,2.8935,2.8912,2.8873,2.8865,2.8868,2.882,2.881,2.8816,2.8808,2.8767,2.8764,2.8763,2.884,2.8735,2.8736,2.8736,2.8878,2.8882,2.8886,0,0,0,0,0,0,2.8959,2.8959,2.8941,2.894,2.8935,2.8876,2.8881,2.8869,2.8866,2.8812,2.8801,2.8825,2.8764,2.8761,2.8792,2.8836,2.8736,2.8737,2.8874,2.8879,2.8884,2.8997,0,0,0,0,0,0,2.896,2.896,2.8986,2.8941,2.8936,2.8972,2.8884,2.887,2.8868,2.8857,2.8817,2.8808,2.8761,2.8792,2.8793,2.8836,2.8738,2.887,2.8876,2.8882,2.8989,2.9005,2.9019,0,0,0,0,0,2.8961,2.9021,2.8988,2.8988,2.8968,2.8975,2.8972,2.8917,2.8872,2.8897,2.8862,2.8809,2.8832,2.8796,2.8797,2.884,2.8867,2.8874,2.8882,2.8982,2.9002,2.9019,0,0,0,0,0,0,2.9074,2.9014,2.8977,2.9024,2.9006,2.8956,2.8987,2.894,2.8934,2.8924,2.8857,2.8849,2.8888,2.8868,2.8829,2.8905,2.8841,2.8849,2.8917,2.8935,2.895,2.8953,2.8738,0,0,0,0,0,2.9105,2.9116,2.9063,2.911,2.9102,2.9047,2.9048,2.9007,2.8985,2.8977,2.8944,2.8925,2.8927,2.893,2.893,2.8986,2.8974,2.9016,2.9031,2.9044,2.9051,2.9076,2.9093,2.8911,2.891,2.891,0,0,2.9168,2.9136,2.9148,2.9132,2.9112,2.9124,2.9041,2.9058,2.9066,2.8979,2.9005,2.8981,2.8955,2.8998,2.9016,2.8982,2.9099,2.9053,2.9064,2.9064,2.9086,2.9103,2.9119,2.8916,2.8915,2.8914,0,0,2.9288,2.9267,2.9302,2.9284,2.9255,2.9217,2.9226,2.9184,2.9164,2.9189,2.9124,2.9133,2.9139,2.9122,2.9115,2.9228,2.9177,2.923,2.9308,2.9333,2.9348,2.936,2.9398,2.9412,2.9237,2.9238,2.9238,0,2.937,2.9386,2.9326,2.9347,2.9341,2.9262,2.9297,2.9282,2.9256,2.9253,2.9216,2.922,2.9198,2.9234,2.9262,2.9259,2.9266,2.9233,2.935,2.9362,2.9373,2.9408,2.9423,2.9244,2.9243,2.9243,2.9242,0,2.9487,2.9499,2.9531,2.9505,2.9503,2.9531,2.9475,2.948,2.944,2.9406,2.9432,2.9401,2.9392,2.9398,2.936,2.9429,2.9409,2.9363,2.9296,2.9398,2.9429,2.9443,2.9253,2.9251,2.9249,2.9247,0,0,2.9677,2.9617,2.9629,2.9615,2.9577,2.9585,2.9609,2.9599,2.9604,2.9588,2.9605,2.9612,2.9567,2.9559,2.9518,2.9541,2.9629,2.949,2.9489,2.9515,2.97,2.9734,2.9751,2.9596,2.9598,2.96,2.9702,0,2.9786,2.9823,2.9769,2.9817,2.9826,2.9751,2.9772,2.975,2.972,2.9723,2.9689,2.9693,2.9636,2.963,2.9649,2.9614,2.9665,2.9606,2.9609,2.961,2.9616,2.9768,2.9804,2.9901,2.9714,2.9716,2.9718,0,2.9919,2.9908,2.9957,2.9914,2.9916,2.9935,2.992,2.9925,2.9899,2.9874,2.9865,2.9815,2.9834,2.9772,2.9796,2.9758,2.9756,2.9739,2.9741,2.9738,2.9669,2.9766,2.9931,2.9945,2.9737,2.9736,2.9734,0,3.0049,3.0047,3.0075,3.0066,3.0017,3.0032,3.0013,2.9983,2.998,2.9968,2.9965,2.9956,2.995,2.9944,2.9893,2.9853,2.9923,2.9857,2.9902,2.9904,2.9919,2.9918,3.0084,2.9922,2.9922,2.9922,2.9922,0,3.0176,3.0208,3.0132,3.0149,3.0182,3.0121,3.0156,3.0128,3.0103,3.0113,3.0049,3.006,2.9993,2.9996,2.9956,2.9981,2.998,2.996,2.9949,2.9964,2.9967,2.9961,2.9952,2.9926,2.9925,2.9924,2.9923,0,3.0326,3.0276,3.0301,3.0253,3.0242,3.0268,3.0226,3.024,3.0205,3.0218,3.0218,3.0163,3.0163,3.0112,3.0103,3.0076,3.0117,3.0095,3.0125,3.0117,3.0164,3.0159,3.033,3.0348,3.0178,3.018,3.0181,0,3.0408,3.0431,3.0385,3.0386,3.0369,3.0374,3.0369,3.031,3.0308,3.028,3.0296,3.0291,3.0284,3.0288,3.0247,3.0239,3.0214,3.0274,3.0213,3.0227,3.0212,3.021,3.0211,3.0287,3.0289,3.0291,3.0292,0,3.056,3.0534,3.053,3.0518,3.0515,3.0503,3.0486,3.0492,3.0426,3.0428,3.0427,3.0421,3.041,3.0406,3.039,3.0369,3.0319,3.0312,3.0322,3.0337,3.0352,3.0342,3.0158,3.0308,3.0307,3.0305,3.0305,3.0304,3.0676,3.0692,3.0661,3.0659,3.064,3.0626,3.0635,3.0601,3.0599,3.0585,3.055,3.0555,3.0527,3.05,3.0484,3.0486,3.0456,3.047,3.0473,3.0477,3.0485,3.0354,3.0483,3.0483,3.0482,3.0482,3.0481,0,3.0821,3.0798,3.0796,3.0775,3.0773,3.0727,3.0706,3.0707,3.0711,3.0689,3.0683,3.0681,3.0676,3.0635,3.0625,3.0634,3.0611,3.0633,3.0631,3.0626,3.0514,3.0505,3.0652,3.0652,3.0652,3.0652,3.0652,3.0652,3.0896,3.0919,3.089,3.0903,3.0879,3.0882,3.0874,3.086,3.0842,3.0842,3.0837,3.081,3.078,3.0767,3.076,3.0748,3.0746,3.0775,3.0756,3.0651,3.0634,3.0619,3.061,3.0776,3.0776,3.0867,3.0868,3.0868]},{"header":{"parameterUnit":"m.s-1","parameterCategory":1,"la1":30.2991,"la2":30.254,"lo1":-89.0895,"lo2":-89.0444,"dy":0.0017,"dx":0.0017,"nx":28,"ny":28,"refTime":"2024-06-04T21:00:00:Z","depth":0,"parameterNumber":3,"parameterNumberName":"V-component_of_WINDS"},"data":[0,0,0,0,0,0,0,0,0,0,0,0,0,0,0,0,0,0,0,0,0,0,0,0,0,0,0,0,0,0,0,0,0,0,0,0,0,0,0,0,0,0,0,0,0,0,0,0,0,0,0,0,0,0,0,0,0,0,5.236,5.2362,0,5.2505,5.2506,5.2508,5.249,5.2488,5.2486,5.2483,5.2624,5.263,5.2636,0,0,0,0,0,0,0,0,0,0,0,0,0,5.2059,5.2065,5.236,5.2362,5.2364,5.2505,5.2507,5.2509,5.2491,5.2488,5.2485,5.2482,5.2622,5.2629,5.2636,0,0,0,0,0,0,0,0,0,0,0,0,0,5.2195,5.2067,5.236,5.2372,5.2374,5.2504,5.2507,5.2509,5.2491,5.2488,5.2484,5.2481,5.262,5.2629,5.2637,5.2762,0,0,5.2665,5.2668,0,0,0,0,0,0,0,0,5.2188,5.2206,5.2368,5.2371,5.2374,5.2476,5.2452,5.2594,5.2492,5.2447,5.2483,5.2479,5.2577,5.2589,5.2624,5.2769,5.2775,5.2665,5.2671,5.2675,5.2677,0,0,0,0,0,0,0,5.2178,5.22,5.2417,5.237,5.2374,5.2367,5.2383,5.2479,5.2529,5.245,5.2449,5.2467,5.2578,5.2616,5.2627,5.2777,5.2665,5.2673,5.2679,5.2682,5.3028,5.3032,0,0,0,0,0,0,5.2167,5.2192,5.2412,5.2421,5.2271,5.2375,5.2393,5.2447,5.2529,5.2538,5.247,5.2466,5.2602,5.2617,5.2632,5.2782,5.2675,5.2683,5.2688,5.3024,5.3029,5.3033,0,0,0,0,0,0,5.216,5.2187,5.2407,5.2307,5.2334,5.2384,5.2445,5.2451,5.2489,5.2544,5.2552,5.25,5.26,5.262,5.273,5.2787,5.2687,5.2695,5.302,5.3026,5.3031,5.3084,0,0,0,0,0,0,5.2152,5.2185,5.2235,5.2308,5.234,5.2505,5.2449,5.2457,5.2505,5.2501,5.2573,5.2582,5.2599,5.2717,5.2739,5.2797,5.2702,5.3015,5.3022,5.3029,5.3078,5.3091,5.3103,0,0,0,0,0,5.2141,5.2243,5.2237,5.2264,5.2404,5.2508,5.2526,5.2546,5.251,5.2559,5.2594,5.258,5.2777,5.2728,5.2753,5.2815,5.3011,5.302,5.3029,5.3072,5.3089,5.3103,0,0,0,0,0,0,5.2172,5.2253,5.2247,5.2376,5.2436,5.2505,5.2568,5.2563,5.2632,5.2625,5.2643,5.266,5.2771,5.2804,5.2748,5.2938,5.2889,5.2903,5.2913,5.293,5.2942,5.2931,5.2709,0,0,0,0,0,5.2195,5.2276,5.234,5.2447,5.2477,5.2518,5.2564,5.2574,5.2635,5.266,5.2702,5.276,5.2835,5.2884,5.2956,5.3082,5.3096,5.3136,5.3149,5.3159,5.3171,5.3238,5.3256,5.3062,5.3062,5.3062,0,0,5.2241,5.2294,5.2344,5.2455,5.2502,5.2582,5.2539,5.2626,5.2685,5.2672,5.2779,5.2812,5.2878,5.2996,5.305,5.3027,5.3227,5.317,5.3178,5.3184,5.3249,5.3267,5.3283,5.3068,5.3067,5.3066,0,0,5.2366,5.2416,5.251,5.2558,5.2631,5.2657,5.2679,5.275,5.2772,5.288,5.2871,5.294,5.3069,5.3116,5.3157,5.3297,5.3286,5.332,5.3385,5.345,5.3466,5.3479,5.3528,5.3546,5.3331,5.3332,5.3332,0,5.2413,5.2537,5.2558,5.2647,5.2695,5.2688,5.2782,5.2827,5.2918,5.295,5.2923,5.3084,5.3128,5.3256,5.3291,5.3324,5.3348,5.3312,5.3462,5.3476,5.3489,5.3536,5.3554,5.3335,5.3335,5.3334,5.3334,0,5.2591,5.2676,5.2743,5.2834,5.2889,5.298,5.3012,5.3065,5.3069,5.3097,5.3205,5.3257,5.3339,5.337,5.3375,5.3499,5.3482,5.3459,5.3409,5.3511,5.3555,5.3573,5.334,5.3339,5.3338,5.3337,0,0,5.2741,5.2842,5.2866,5.2906,5.2985,5.305,5.3139,5.3221,5.3265,5.3328,5.3401,5.351,5.3489,5.3535,5.3544,5.3601,5.3707,5.357,5.3572,5.3593,5.3845,5.3862,5.3882,5.37,5.3704,5.3707,5.3839,0,5.2873,5.3034,5.3054,5.3195,5.3273,5.3267,5.3344,5.3399,5.3426,5.3494,5.3523,5.36,5.3566,5.3594,5.365,5.3683,5.3758,5.3673,5.3766,5.3769,5.375,5.3906,5.3924,5.4047,5.3856,5.3859,5.3862,0,5.3049,5.3119,5.3268,5.3335,5.3369,5.3438,5.3514,5.358,5.3641,5.3656,5.3708,5.3709,5.3798,5.3745,5.3865,5.3807,5.3846,5.3867,5.3872,5.3881,5.3822,5.3918,5.4086,5.4105,5.3889,5.3887,5.3885,0,5.3142,5.3273,5.3379,5.3414,5.3495,5.3543,5.3579,5.3637,5.3684,5.3749,5.378,5.3854,5.3894,5.3949,5.397,5.393,5.4089,5.4038,5.4102,5.4102,5.4136,5.4134,5.4312,5.4162,5.4162,5.4161,5.4161,0,5.3287,5.3379,5.3422,5.3487,5.3588,5.3609,5.3708,5.374,5.3792,5.3861,5.3859,5.3923,5.3947,5.4014,5.403,5.4126,5.4144,5.4158,5.4161,5.4158,5.4156,5.4183,5.4175,5.4166,5.4165,5.4164,5.4163,0,5.3409,5.3442,5.3556,5.3624,5.3643,5.3714,5.377,5.3832,5.3858,5.3945,5.3967,5.4008,5.4086,5.4112,5.4207,5.4218,5.433,5.4326,5.431,5.431,5.4373,5.4367,5.4575,5.4603,5.4435,5.4436,5.4438,0,5.3499,5.3569,5.3645,5.3692,5.373,5.3806,5.3855,5.3877,5.3928,5.4002,5.4053,5.4132,5.4197,5.4322,5.4358,5.443,5.4427,5.4495,5.4438,5.4432,5.4427,5.4422,5.4428,5.4506,5.4507,5.4509,5.451,0,5.3656,5.3668,5.374,5.3818,5.3877,5.3938,5.3997,5.4035,5.4065,5.4121,5.4203,5.4253,5.435,5.4428,5.4501,5.4534,5.4526,5.4528,5.4546,5.4544,5.4532,5.4538,5.4339,5.4523,5.4522,5.4521,5.452,5.4519,5.3764,5.3826,5.3888,5.3968,5.4015,5.407,5.4131,5.4165,5.4234,5.4317,5.4325,5.4413,5.4469,5.4567,5.4604,5.467,5.4651,5.4678,5.4685,5.4691,5.4695,5.4522,5.4684,5.4683,5.4683,5.4683,5.4682,0,5.3919,5.3959,5.4033,5.4116,5.4178,5.4168,5.4232,5.4284,5.4362,5.4416,5.448,5.4573,5.4647,5.4689,5.4763,5.4808,5.4806,5.4826,5.4823,5.483,5.4709,5.4686,5.4827,5.4827,5.4827,5.4826,5.4826,5.4826,5.4008,5.4112,5.4131,5.4257,5.4295,5.4383,5.4421,5.447,5.4514,5.4618,5.4681,5.4709,5.4757,5.4834,5.4901,5.4911,5.4938,5.496,5.4968,5.4854,5.4839,5.4825,5.4803,5.4966,5.4966,5.5083,5.5084,5.5085]}]]